Weather Roundup
Issued by NWS

Home | Current Version | Previous Version | Text Only | Print | Product List | Glossary On
Versions: 1 2 3 4 5 6 7 8 9 10 11 12 13 14 15 16 17 18 19 20 21 22 23 24 25 26 27 28 29 30 31 32 33 34 35 36 37 38 39 40 41 42 43 44 45 46 47 48 49 50
000
NZUS93 KARX 050910
HRRWXR

CURRENT HOURLY OBSERVATIONS ACROSS
MUCH OF THE UPPER MISSISSIPPI VALLEY
NATIONAL WEATHER SERVICE LA CROSSE WI
300 AM CST MON DEC 05 2016


...SOUTHEAST MINNESOTA...


CITY           SKY/WX    TMP DP  RH WIND       PRES   REMARKS
ROCHESTER      FOG       26  25  96 S10       29.84R VSB 1/4 WCI  16
ROCHESTER/MAYO FAIR      33  33 100 SW6       29.84R WCI  27
WINONA         CLOUDY    34  32  93 CALM      29.87R
AUSTIN         NOT AVBL
ALBERT LEA     CLEAR     36  34  93 S5        29.83R WCI  32
DODGE CENTER   PTCLDY    28  28 100 S8        29.83R WCI  20
PRESTON        FOG       31  30  96 SW8       29.85F VSB 1   WCI  24
OWATONNA       CLEAR     32  28  86 S5        29.82S WCI  27
FARIBAULT      CLEAR     30  28  93 CALM      29.82S
$$

...ELSEWHERE IN MINNESOTA...


CITY           SKY/WX    TMP DP  RH WIND       PRES   REMARKS
MINNEAPOLIS    CLEAR     29  26  89 CALM      29.81S
INTNL FALLS    CLOUDY    30  27  88 SW7       29.66R WCI  23
DULUTH         CLOUDY    31  28  89 W12       29.71R WCI  22
RED WING       CLEAR     27  27 100 CALM      29.83S FOG
REDWOOD FALLS  CLOUDY    30  27  88 SE6       29.76F WCI  24
MANKATO        CLEAR     29  28  96 SE7       29.80F WCI  22
WORTHINGTON    MOCLDY    33  31  92 S10       29.76S WCI  25
FAIRMONT       CLEAR     30  29  96 S9        29.81S WCI  22
$$

...SOUTHWEST WISCONSIN...


CITY           SKY/WX    TMP DP  RH WIND       PRES   REMARKS
LA CROSSE      CLOUDY    36  33  89 SW8       29.88R WCI  30
PRAIRIE DU CHI CLOUDY    35  32  90 SW8       29.92R FOG     WCI  28
BOSCOBEL       CLOUDY    35  33  92 S3        29.92R FOG
LONE ROCK      CLOUDY    34  31  88 W6        29.92R WCI  29
PLATTEVILLE    CLOUDY    33  33 100 SW8       29.93R WCI  26
FORT MC COY    CLOUDY    34  33  96 SW5       29.88R WCI  30
CAMP DOUGLAS   CLOUDY    34  32  90 SW10      29.86S WCI  26
MAUSTON-NEW LI CLOUDY    34  32  91 SW7       29.87R FOG     WCI  28
VIROQUA        CLOUDY    32  32 100 SW10      29.87R WCI  24
WIS DELLS      CLOUDY    32  31  95 W8        29.88S WCI  25
$$

...ELSEWHERE IN WISCONSIN...


CITY           SKY/WX    TMP DP  RH WIND       PRES   REMARKS
MILWAUKEE      CLOUDY    35  30  82 W10G20    29.92R WCI  27
MADISON        CLOUDY    33  30  88 VRB7      29.92R WCI  27
GREEN BAY      CLOUDY    35  33  92 SW9       29.84R WCI  28
EAU CLAIRE     CLEAR     31  30  96 SW8       29.82R WCI  23
BLACK RVR FLS  CLOUDY    34  34 100 SW3       29.85R
MEDFORD        CLOUDY    32  28  87 W8        29.78R WCI  25
WAUSAU         CLOUDY    34  29  82 W14       29.79R WCI  25
WIS RAPIDS     CLOUDY    34  33  96 SW7       29.85R WCI  28
MARSHFIELD     CLOUDY    33  31  92 W10       29.81R WCI  25
RICE LAKE      CLEAR     31  28  89 SW5       29.81R WCI  27
$$

...NORTHEAST IOWA...


CITY           SKY/WX    TMP DP  RH WIND       PRES   REMARKS
WATERLOO       CLEAR     29  28  96 S7        29.91R FOG     WCI  22
DUBUQUE        CLOUDY    33  32  96 SW12      29.92R FOG     WCI  24
DECORAH        CLOUDY    32  32 100 VRB5      29.88R FOG     WCI  27
MASON CITY     CLEAR     27  25  92 S5        29.86S WCI  22
CHARLES CITY   FOG       28  28 100 S8        29.88S VSB 1   WCI  20
OELWEIN        FOG       30  30 100 S6        29.91R VSB<1/4 WCI  24
$$

...ELSEWHERE IN IOWA...


CITY           SKY/WX    TMP DP  RH WIND       PRES   REMARKS
DES MOINES     CLOUDY    31  29  92 S7        29.91S WCI  24
IOWA CITY      CLOUDY    34  33  96 S8        29.98S FOG     WCI  27
FORT DODGE     MOCLDY    30  27  86 S6        29.86S WCI  24
MARSHALLTOWN   FOG       30  30 100 S6        29.90R VSB 3/4 WCI  24
CEDAR RAPIDS   FOG       33  33 100 S10       29.94R VSB 3/4 WCI  25
$$

...NORTHERN ILLINOIS...


CITY           SKY/WX    TMP DP  RH WIND       PRES   REMARKS
CHICAGO-OHARE  CLOUDY    33  30  88 W9        29.98R WCI  25
CHICAGO-MIDWAY CLOUDY    34  29  82 W12       30.00R WCI  25
MOLINE         CLOUDY    35  31  85 SW7       29.99R WCI  29
ROCKFORD       CLOUDY    33  30  88 SW8G18    29.99R FOG     WCI  26
PEORIA         CLOUDY    33  32  96 W3        30.03S
$$

NOTE: "FAIR" INDICATES FEW OR NO CLOUDS BELOW 12,000 FEET WITH NO
SIGNIFICANT WEATHER AND/OR OBSTRUCTIONS TO VISIBILITY. WIND
SPEEDS ARE IN MILES-PER-HOUR.




USA.gov is the U.S. government's official web portal to all federal, state and local government web resources and services.